Regional Weather Roundup
Issued by NWS

Home | Current Version | Previous Version | Graphics & Text | Print | Product List | Glossary On
Versions: 1 2 3 4 5 6 7 8 9 10 11 12 13 14 15 16 17 18 19 20 21 22 23 24 25 26 27 28 29 30 31 32 33 34 35 36 37 38 39 40 41 42 43 44 45 46 47 48 49 50
000
ASUS45 KCYS 300610
RWRWY

WYOMING REGIONAL WEATHER ROUNDUP
NATIONAL WEATHER SERVICE CHEYENNE WY
1200 AM MDT TUE JUN 30 2015

NOTE:  "FAIR" INDICATES FEW OR NO CLOUDS BELOW 12,000 FEET
WITH NO SIGNIFICANT WEATHER AND/OR OBSTRUCTIONS TO VISIBILITY.

WYZ001-300700-
YELLOWSTONE NATIONAL PARK

CITY           SKY/WX    TMP DP  RH WIND       PRES   REMARKS
LK YELLOWSTONE   N/A     58  52  80 CALM      30.44F
6HR MIN TEMP:  58; 6HR MAX TEMP:  78;

W YELLOWSTONE  NOT AVBL

$$
WYZ002>013-054>058-071-098>099-300700-
NORTHERN WYOMING

CITY           SKY/WX    TMP DP  RH WIND       PRES   REMARKS
JACKSON        FAIR      64  54  68 N12       30.32F
CODY           CLOUDY    73  50  43 NW8       30.19F THUNDER
GREYBULL       FAIR      83  49  30 NW13      30.04F
6HR MIN TEMP:  82; 6HR MAX TEMP:  99;

WORLAND        FAIR      79  51  37 N9        30.08R
6HR MIN TEMP:  78; 6HR MAX TEMP:  95;

SHERIDAN       FAIR      74  54  49 NW18G25   30.09R
6HR MIN TEMP:  66; 6HR MAX TEMP:  90;

BUFFALO        FAIR      71  47  42 N10       30.15S
6HR MIN TEMP:  71; 6HR MAX TEMP:  88;

GILLETTE       FAIR      67  56  67 S9        30.10S
6HR MIN TEMP:  64; 6HR MAX TEMP:  89;

HULETT         FAIR      61  52  72 SW6       30.10S
NEWCASTLE      FAIR      68  52  56 CALM      30.12S

$$
WYZ014>020-022>026-101>103-300700-
CENTRAL WYOMING

CITY           SKY/WX    TMP DP  RH WIND       PRES   REMARKS
BIG PINEY      FAIR      65  47  52 CALM      30.31S
6HR MIN TEMP:  64; 6HR MAX TEMP:  83;

PINEDALE       FAIR      63  52  67 W3        30.33R
DUBOIS         MOCLDY    63  50  63 W13       30.36R
LANDER         FAIR      74  43  32 SW8       30.15F
6HR MIN TEMP:  71; 6HR MAX TEMP:  89;

RIVERTON       FAIR      76  43  30 S7        30.17S
6HR MIN TEMP:  73; 6HR MAX TEMP:  91;

CASPER         FAIR      64  46  52 W5        30.18S
6HR MIN TEMP:  60; 6HR MAX TEMP:  90;

DOUGLAS        FAIR      65  50  58 E10       30.17F
6HR MIN TEMP:  61; 6HR MAX TEMP:  89;


$$
WYZ021-027>030-104>119-300700-
SOUTHERN WYOMING

CITY           SKY/WX    TMP DP  RH WIND       PRES   REMARKS
EVANSTON       FAIR      67  43  41 S6        30.30S
6HR MIN TEMP:  67; 6HR MAX TEMP:  90;

KEMMERER       FAIR      64  43  45 N9        30.32S
FORT BRIDGER   CLEAR     72  39  30 S10       30.31S
ROCK SPRINGS   FAIR      71  38  29 SE7       30.27S
6HR MIN TEMP:  71; 6HR MAX TEMP:  87;

DIXON          FAIR      65  41  41 NE8       30.29F
RAWLINS        FAIR      63  42  46 E7        30.30S
6HR MIN TEMP:  63; 6HR MAX TEMP:  86;

SARATOGA       FAIR      66  45  45 S10       30.32S
LARAMIE        FAIR      55  43  63 SW6       30.35F
6HR MIN TEMP:  55; 6HR MAX TEMP:  79;

CHEYENNE       FAIR      60  48  64 W12       30.27F
6HR MIN TEMP:  59; 6HR MAX TEMP:  83;

TORRINGTON     FAIR      67  54  63 E8        30.11F
6HR MIN TEMP:  67; 6HR MAX TEMP:  91;

PINE BLUFFS    FAIR      61  57  88 CALM      30.21F

$$



USA.gov is the U.S. government's official web portal to all federal, state and local government web resources and services.